Location: Katowice
(50.2611°N, 19.0242°E)
Time: 01:37:55
(UTC+02:00)

Explorer 7 - Pass Details

Date: 01 September 2019
Orbit: 485 x 680 km, 50.3° (Epoch: 18 October)

Event Time Altitude Azimuth Distance (km) Brightness Sun altitude
Rises 07:16:45 0° 233° (SW) 3,025 10.1 11.6°
Reaches altitude 10° 07:19:10 10° 228° (SW) 2,114 9.4 12.0°
Maximum altitude 07:23:54 50° 154° (SSE) 863 8.3 12.8°
Drops below altitude 10° 07:28:34 10° 80° (E) 2,079 11.8 13.5°
Sets 07:30:55 0° 75° (ENE) 2,971 12.0 13.9°
